[[{"header":{"parameterUnit":"m.s-1","parameterCategory":2,"la1":30.2991,"la2":30.254,"lo1":-89.0895,"lo2":-89.0444,"dy":0.0017,"dx":0.0017,"nx":28,"ny":28,"refTime":"2025-08-21T03:00:00:Z","depth":"0","parameterNumber":2,"parameterNumberName":"U-component_of_CURRENTS"},"data":[0,0,0,0,0,0,0,0,0,0,0,0,0,0,0,0,0,0,0,0,0,0,0,0,0,0,0,0,0,0,0,0,0,0,0,0,0,0,0,0,0,0,0,0,0,0,0,0,0,0,0,0,0,0,0,0,0,0,0.2951,0.2951,0,0.292,0.292,0.292,0.2897,0.2897,0.2897,0.2896,0.2924,0.2925,0.2926,0,0,0,0,0,0,0,0,0,0,0,0,0,0.3061,0.3059,0.2951,0.2951,0.2951,0.292,0.292,0.2919,0.2897,0.2897,0.2897,0.2896,0.2924,0.2925,0.2926,0,0,0,0,0,0,0,0,0,0,0,0,0,0.302,0.3058,0.2951,0.2936,0.2934,0.292,0.292,0.2919,0.2897,0.2897,0.2897,0.2896,0.2924,0.2925,0.2926,0.2939,0,0,0.293,0.2931,0,0,0,0,0,0,0,0,0.3022,0.3016,0.2939,0.2937,0.2935,0.2913,0.2969,0.2929,0.2897,0.2911,0.2896,0.2896,0.2926,0.2927,0.2921,0.294,0.2942,0.293,0.2931,0.2932,0.2932,0,0,0,0,0,0,0,0.3025,0.3017,0.2939,0.2938,0.2936,0.2955,0.2948,0.2961,0.2921,0.291,0.2908,0.2905,0.2926,0.2919,0.2921,0.2942,0.293,0.2932,0.2932,0.2933,0.3063,0.3065,0,0,0,0,0,0,0.3026,0.3019,0.294,0.2938,0.2979,0.2953,0.2945,0.292,0.292,0.2919,0.2905,0.2904,0.2917,0.292,0.2922,0.3022,0.2932,0.2933,0.2934,0.306,0.3064,0.3066,0,0,0,0,0,0,0.3028,0.3018,0.2941,0.298,0.2972,0.2951,0.2923,0.2919,0.2918,0.2916,0.2916,0.2909,0.2917,0.292,0.2959,0.302,0.2934,0.2935,0.3057,0.3061,0.3065,0.3168,0,0,0,0,0,0,0.303,0.3018,0.301,0.2979,0.2969,0.2948,0.2923,0.2919,0.2917,0.2915,0.2919,0.292,0.2917,0.2958,0.2961,0.302,0.2936,0.3054,0.3059,0.3064,0.3161,0.3175,0.3187,0,0,0,0,0,0.3034,0.3021,0.3009,0.3,0.2954,0.2949,0.2946,0.2931,0.2917,0.2927,0.2938,0.2921,0.2992,0.296,0.2964,0.3025,0.3051,0.3058,0.3063,0.3155,0.3172,0.3186,0,0,0,0,0,0,0.3074,0.3016,0.3003,0.2975,0.2971,0.2945,0.295,0.2937,0.2949,0.2952,0.2945,0.2949,0.3014,0.3001,0.2966,0.3079,0.3023,0.303,0.3092,0.3108,0.312,0.3147,0.2937,0,0,0,0,0,0.3076,0.3049,0.3014,0.3003,0.2994,0.2974,0.2971,0.2963,0.2964,0.2967,0.2972,0.2993,0.304,0.3056,0.3084,0.3132,0.3156,0.3178,0.3191,0.3201,0.3227,0.331,0.3333,0.3086,0.3086,0.3086,0,0,0.3096,0.3059,0.3049,0.301,0.3,0.3017,0.2972,0.2974,0.3011,0.2972,0.3024,0.3037,0.3064,0.3132,0.316,0.3128,0.3287,0.3209,0.3218,0.3238,0.3319,0.3343,0.3365,0.309,0.3089,0.3089,0,0,0.3128,0.3082,0.3076,0.3072,0.3057,0.3052,0.3056,0.3039,0.3052,0.3096,0.3099,0.315,0.3184,0.3233,0.326,0.3359,0.3355,0.3361,0.3445,0.3525,0.3547,0.3566,0.3635,0.3659,0.3363,0.3364,0.3364,0,0.316,0.3132,0.3085,0.309,0.3099,0.3073,0.31,0.3118,0.3127,0.3156,0.313,0.3233,0.3247,0.3364,0.3403,0.3392,0.3426,0.3382,0.3543,0.3562,0.358,0.3647,0.3672,0.3369,0.3369,0.3368,0.3367,0,0.319,0.3179,0.3181,0.3176,0.3191,0.3203,0.3219,0.3249,0.3257,0.3274,0.3369,0.3394,0.3453,0.3477,0.3472,0.3612,0.3593,0.3552,0.3503,0.3611,0.3674,0.3699,0.3377,0.3375,0.3374,0.3372,0,0,0.3215,0.3202,0.3203,0.3215,0.323,0.3241,0.3321,0.3373,0.3427,0.3462,0.355,0.3635,0.3628,0.3661,0.3667,0.3743,0.3896,0.3705,0.3706,0.3774,0.4078,0.3944,0.3958,0.3879,0.3884,0.3888,0.4075,0,0.3252,0.327,0.3266,0.3321,0.3329,0.3353,0.3424,0.3482,0.3526,0.3607,0.3666,0.3748,0.3705,0.3745,0.3816,0.3878,0.3965,0.385,0.3964,0.3968,0.3836,0.3983,0.3781,0.392,0.4098,0.4102,0.4105,0,0.3265,0.3275,0.3318,0.3365,0.3375,0.3421,0.3516,0.3579,0.3694,0.3733,0.3822,0.3861,0.3998,0.3935,0.4107,0.4031,0.4076,0.4115,0.4122,0.398,0.3881,0.384,0.3958,0.3874,0.4143,0.414,0.4137,0,0.3265,0.3306,0.3338,0.3353,0.3414,0.3459,0.3507,0.3609,0.3687,0.3822,0.3903,0.4021,0.4097,0.419,0.4246,0.42,0.4422,0.4358,0.4291,0.4282,0.4125,0.4092,0.4172,0.4507,0.4507,0.4506,0.4506,0,0.3275,0.33,0.3334,0.335,0.3416,0.3456,0.3554,0.3621,0.3755,0.3847,0.3957,0.4055,0.4166,0.4284,0.4326,0.438,0.4483,0.4353,0.4338,0.4152,0.4121,0.4047,0.4003,0.4513,0.4512,0.451,0.4509,0,0.326,0.3279,0.3315,0.3379,0.3406,0.345,0.3576,0.3638,0.3772,0.3911,0.3973,0.413,0.4244,0.4352,0.4496,0.4463,0.4415,0.4537,0.4301,0.4253,0.4052,0.4019,0.3934,0.3824,0.4507,0.4505,0.4503,0,0.3253,0.3261,0.3324,0.3345,0.3372,0.3448,0.3493,0.3626,0.3696,0.3929,0.3984,0.4165,0.424,0.4408,0.4385,0.446,0.4351,0.431,0.4178,0.4055,0.4012,0.3849,0.3751,0.4032,0.4027,0.4022,0.4019,0,0.3241,0.3254,0.3283,0.3327,0.3365,0.3424,0.3498,0.3573,0.3717,0.383,0.3946,0.4049,0.4177,0.4128,0.4215,0.4219,0.4074,0.4217,0.4173,0.3727,0.3478,0.3356,0.3897,0.398,0.3983,0.3986,0.3988,0.399,0.3226,0.3239,0.3264,0.33,0.3338,0.3367,0.3374,0.3457,0.3547,0.3646,0.3787,0.3828,0.3901,0.3959,0.3947,0.3785,0.3792,0.3675,0.368,0.3552,0.3331,0.3771,0.3764,0.3766,0.3769,0.3771,0.3772,0,0.3192,0.3203,0.3234,0.3251,0.3238,0.3289,0.3338,0.3303,0.3316,0.3418,0.3466,0.3481,0.3478,0.3519,0.3428,0.3293,0.3148,0.3217,0.2982,0.294,0.3425,0.3286,0.3072,0.3072,0.3072,0.3072,0.3072,0.3072,0.3173,0.3167,0.3173,0.3131,0.3132,0.3055,0.3043,0.301,0.3036,0.298,0.2944,0.3001,0.3155,0.3176,0.3029,0.2951,0.2757,0.2595,0.2653,0.3039,0.3082,0.3123,0.2985,0.2712,0.2711,0.201,0.2005,0.2001]},{"header":{"parameterUnit":"m.s-1","parameterCategory":2,"la1":30.2991,"la2":30.254,"lo1":-89.0895,"lo2":-89.0444,"dy":0.0017,"dx":0.0017,"nx":28,"ny":28,"refTime":"2025-08-21T03:00:00:Z","depth":"0","parameterNumber":3,"parameterNumberName":"V-component_of_CURRENTS"},"data":[0,0,0,0,0,0,0,0,0,0,0,0,0,0,0,0,0,0,0,0,0,0,0,0,0,0,0,0,0,0,0,0,0,0,0,0,0,0,0,0,0,0,0,0,0,0,0,0,0,0,0,0,0,0,0,0,0,0,0.0125,0.0125,0,0.0085,0.0084,0.0084,0.005,0.005,0.005,0.005,-0.002,-0.0022,-0.0024,0,0,0,0,0,0,0,0,0,0,0,0,0,0.0106,0.0107,0.0125,0.0125,0.0125,0.0085,0.0084,0.0084,0.005,0.005,0.005,0.005,-0.002,-0.0022,-0.0024,0,0,0,0,0,0,0,0,0,0,0,0,0,0.0094,0.0107,0.0125,0.0105,0.0103,0.0085,0.0084,0.0083,0.005,0.005,0.005,0.005,-0.0019,-0.0022,-0.0024,-0.0035,0,0,-0.0032,-0.0033,0,0,0,0,0,0,0,0,0.0094,0.0094,0.0108,0.0106,0.0104,0.0074,0.0052,0.0043,0.0051,0.0068,0.005,0.005,0.001,0.0005,-0.0004,-0.0038,-0.0041,-0.0032,-0.0034,-0.0035,-0.0036,0,0,0,0,0,0,0,0.0095,0.0095,0.0107,0.0108,0.0105,0.0075,0.0073,0.005,0.0039,0.0067,0.0065,0.0063,0.0008,-0.0002,-0.0006,-0.0042,-0.0032,-0.0034,-0.0036,-0.0037,-0.0098,-0.0098,0,0,0,0,0,0,0.0109,0.0097,0.0108,0.0106,0.0101,0.0076,0.0074,0.0082,0.004,0.0034,0.0064,0.0062,0.0003,-0.0003,-0.0009,-0.0018,-0.0035,-0.0037,-0.0039,-0.0098,-0.0098,-0.0098,0,0,0,0,0,0,0.0108,0.011,0.011,0.0101,0.0099,0.0077,0.0086,0.0082,0.0074,0.0038,0.0031,0.0062,0.0002,-0.0005,-0.0027,-0.0021,-0.0038,-0.0041,-0.0098,-0.0098,-0.0098,-0.0041,0,0,0,0,0,0,0.0108,0.0111,0.0118,0.0103,0.0101,0.0106,0.0087,0.0081,0.0075,0.0072,0.0034,0.0027,0.0001,-0.0023,-0.0029,-0.0025,-0.0043,-0.0098,-0.0098,-0.0098,-0.0043,-0.0039,-0.0036,0,0,0,0,0,0.0108,0.0124,0.0119,0.012,0.0113,0.0107,0.0103,0.0084,0.0075,0.0075,0.0048,0.0029,-0.0029,-0.0024,-0.0032,-0.0029,-0.0098,-0.0098,-0.0098,-0.0044,-0.004,-0.0036,0,0,0,0,0,0,0.0116,0.0122,0.0116,0.0132,0.0123,0.0102,0.0101,0.0089,0.0068,0.0065,0.0029,0.0021,0.0002,-0.0022,-0.0017,-0.0049,-0.0067,-0.0069,-0.0024,-0.002,-0.0016,0.0008,-0.0045,0,0,0,0,0,0.0123,0.0138,0.0132,0.0142,0.0141,0.0122,0.0116,0.0106,0.0087,0.0078,0.0051,0.0021,-0.0005,-0.0018,-0.0046,-0.006,-0.0058,-0.0065,-0.0061,-0.0058,-0.0045,-0.0036,-0.003,-0.0099,-0.0099,-0.0099,0,0,0.0127,0.0133,0.0139,0.0144,0.0135,0.014,0.0118,0.0116,0.0119,0.0073,0.0066,0.0032,-0.0007,-0.0024,-0.0035,-0.0043,-0.0037,-0.0058,-0.0055,-0.0043,-0.0035,-0.0028,-0.0022,-0.0099,-0.0099,-0.0099,0,0,0.0145,0.0149,0.0168,0.0167,0.0165,0.0154,0.0157,0.0142,0.0135,0.0121,0.009,0.0065,0.0023,0.0001,-0.0017,-0.0011,-0.0021,-0.0026,0.0013,0.0021,0.0028,0.0033,0.0052,0.0059,-0.0023,-0.0023,-0.0023,0,0.0148,0.0176,0.0169,0.0186,0.0191,0.0165,0.0182,0.0171,0.0149,0.0153,0.0126,0.0081,0.0037,0.0032,0.0022,-0.0002,0.0007,0.0003,0.0029,0.0034,0.0039,0.0057,0.0064,-0.002,-0.0021,-0.0021,-0.0021,0,0.0182,0.0201,0.0212,0.0228,0.0228,0.024,0.0229,0.0231,0.0214,0.02,0.0192,0.0138,0.0116,0.0089,0.005,0.0062,0.0059,0.0034,0.0026,0.005,0.0066,0.0073,-0.0016,-0.0017,-0.0018,-0.0019,0,0,0.0202,0.0232,0.0236,0.026,0.0257,0.0268,0.0278,0.0287,0.0312,0.0272,0.031,0.023,0.0205,0.0183,0.0138,0.0131,0.0155,0.0097,0.0096,0.013,0.019,0.0171,0.0176,0.0139,0.014,0.0141,0.0192,0,0.0233,0.0283,0.0283,0.0324,0.0351,0.0341,0.036,0.0363,0.0352,0.038,0.0336,0.034,0.0241,0.0243,0.0214,0.0178,0.0173,0.0144,0.0149,0.015,0.0141,0.0182,0.0178,0.0221,0.0198,0.0199,0.0199,0,0.0271,0.0304,0.0352,0.04,0.0412,0.0425,0.0468,0.048,0.0498,0.0502,0.049,0.0462,0.0444,0.0366,0.0313,0.0303,0.0248,0.0213,0.0214,0.0182,0.0142,0.0189,0.0233,0.0102,0.0209,0.0208,0.0207,0,0.0308,0.0356,0.0402,0.0415,0.0455,0.0481,0.0498,0.0514,0.0563,0.0588,0.0646,0.059,0.0605,0.0524,0.0418,0.0378,0.0384,0.0321,0.0256,0.0255,0.0245,0.0241,0.0175,0.0297,0.0297,0.0297,0.0296,0,0.0351,0.039,0.0426,0.0454,0.053,0.0526,0.0604,0.062,0.0678,0.0772,0.0711,0.0786,0.0645,0.0625,0.0499,0.0409,0.0443,0.0283,0.0271,0.0264,0.026,0.0139,0.0053,0.0298,0.0298,0.0298,0.0297,0,0.0387,0.0406,0.0472,0.0525,0.0552,0.0602,0.0697,0.0761,0.0798,0.0933,0.0964,0.0958,0.0928,0.0796,0.0687,0.0534,0.0365,0.0398,0.0402,0.0388,0.0171,0.0089,0.0019,-0.0046,0.0335,0.0335,0.0335,0,0.041,0.0447,0.0533,0.059,0.0617,0.0698,0.0771,0.0822,0.0909,0.1049,0.1138,0.1151,0.1197,0.1025,0.0764,0.0577,0.0413,0.0414,0.0312,0.0178,0.0078,0.0014,-0.0041,0.0328,0.0328,0.0328,0.0328,0,0.0464,0.0491,0.0551,0.0669,0.0752,0.0863,0.0968,0.1066,0.1161,0.1297,0.1452,0.1507,0.1342,0.1142,0.0847,0.0679,0.0307,0.0403,0.0269,0.0075,-0.0,-0.0073,0.028,0.0327,0.0327,0.0327,0.0327,0.0327,0.0511,0.0565,0.0649,0.0763,0.0869,0.1014,0.1123,0.1263,0.1444,0.1653,0.1675,0.1789,0.147,0.1069,0.0808,0.0323,0.0316,0.0162,0.008,0.0035,-0.0058,0.0295,0.0316,0.0316,0.0316,0.0316,0.0316,0,0.0574,0.0639,0.0745,0.0884,0.1011,0.1057,0.1255,0.1382,0.1614,0.1801,0.1948,0.1877,0.148,0.1037,0.0398,0.0064,-0.0081,-0.0117,-0.0216,-0.0253,0.0076,0.0042,0.0,0.0,0.0,0.0001,0.0001,0.0001,0.0613,0.0718,0.077,0.098,0.1085,0.1267,0.1387,0.1588,0.1754,0.199,0.2075,0.2114,0.1811,0.0695,-0.0051,-0.0229,-0.0458,-0.0513,-0.0614,-0.041,-0.0391,-0.0373,-0.0424,-0.0563,-0.0564,-0.0908,-0.0912,-0.0915]}],[{"header":{"parameterUnit":"m.s-1","parameterCategory":2,"la1":30.2991,"la2":30.254,"lo1":-89.0895,"lo2":-89.0444,"dy":0.0017,"dx":0.0017,"nx":28,"ny":28,"refTime":"2025-08-21T03:00:00:Z","depth":"2","parameterNumber":2,"parameterNumberName":"U-component_of_CURRENTS"},"data":[0,0,0,0,0,0,0,0,0,0,0,0,0,0,0,0,0,0,0,0,0,0,0,0,0,0,0,0,0,0,0,0,0,0,0,0,0,0,0,0,0,0,0,0,0,0,0,0,0,0,0,0,0,0,0,0,0,0,0.2433,0.2433,0,0.2438,0.2438,0.2438,0.2432,0.2432,0.2432,0.2432,0.2432,0.2432,0.2432,0,0,0,0,0,0,0,0,0,0,0,0,0,0.2404,0.2404,0.2433,0.2433,0.2433,0.2438,0.2438,0.2438,0.2432,0.2432,0.2432,0.2432,0.2432,0.2432,0.2432,0,0,0,0,0,0,0,0,0,0,0,0,0,0.2412,0.2405,0.2433,0.2432,0.2432,0.2438,0.2438,0.2438,0.2432,0.2432,0.2432,0.2432,0.2432,0.2432,0.2432,0.2434,0,0,0.2433,0.2433,0,0,0,0,0,0,0,0,0.2411,0.2413,0.2432,0.2432,0.2433,0.2436,0.2428,0.2437,0.2432,0.243,0.2432,0.2432,0.2434,0.2434,0.2433,0.2434,0.2434,0.2433,0.2433,0.2433,0.2433,0,0,0,0,0,0,0,0.2411,0.2412,0.2433,0.2432,0.2433,0.2428,0.2428,0.243,0.2431,0.243,0.243,0.2434,0.2434,0.2433,0.2433,0.2434,0.2433,0.2433,0.2433,0.2433,0.2509,0.2511,0,0,0,0,0,0,0.2415,0.2412,0.2433,0.2433,0.2424,0.2428,0.2429,0.2433,0.2431,0.2431,0.2434,0.2434,0.2432,0.2433,0.2433,0.2486,0.2433,0.2433,0.2433,0.2507,0.2509,0.2512,0,0,0,0,0,0,0.2414,0.2417,0.2432,0.2424,0.2426,0.2429,0.2434,0.2434,0.2442,0.2434,0.2434,0.2444,0.2432,0.2433,0.245,0.2484,0.2433,0.2433,0.2505,0.2508,0.2511,0.2559,0,0,0,0,0,0,0.2414,0.2417,0.2425,0.2424,0.2427,0.2444,0.2434,0.2434,0.2445,0.2445,0.2443,0.2442,0.2432,0.245,0.245,0.2483,0.2433,0.2502,0.2506,0.251,0.2555,0.2563,0.257,0,0,0,0,0,0.2412,0.2424,0.2425,0.2428,0.2437,0.2445,0.2446,0.2446,0.2446,0.2453,0.2457,0.2443,0.2474,0.2451,0.2451,0.2484,0.25,0.2505,0.2509,0.2551,0.2562,0.257,0,0,0,0,0,0,0.2413,0.2425,0.2426,0.244,0.2447,0.2445,0.2456,0.2455,0.2463,0.2467,0.2456,0.2457,0.2488,0.2482,0.2457,0.2521,0.249,0.2495,0.2522,0.2532,0.2539,0.2586,0.2433,0,0,0,0,0,0.2419,0.2434,0.2438,0.2451,0.2457,0.2459,0.2464,0.2466,0.2471,0.2475,0.2477,0.2488,0.2506,0.2514,0.2524,0.255,0.2576,0.2578,0.2585,0.2592,0.2633,0.2685,0.2702,0.2526,0.2526,0.2526,0,0,0.2422,0.2433,0.2439,0.2454,0.246,0.2474,0.2462,0.2477,0.2496,0.2474,0.2504,0.2511,0.2519,0.2553,0.2568,0.2552,0.2655,0.2597,0.2603,0.2641,0.2692,0.2709,0.2724,0.2529,0.2529,0.2528,0,0,0.2435,0.2447,0.2461,0.2471,0.2488,0.2494,0.2502,0.2511,0.2523,0.2548,0.2548,0.2587,0.2593,0.2622,0.2633,0.2695,0.2693,0.2689,0.2766,0.2816,0.2831,0.2844,0.2895,0.2913,0.2694,0.2694,0.2694,0,0.2439,0.2457,0.2466,0.2483,0.2497,0.2506,0.2523,0.254,0.2555,0.2587,0.2567,0.2638,0.2637,0.2707,0.2734,0.2715,0.274,0.2722,0.2826,0.284,0.2853,0.2902,0.2921,0.2697,0.2697,0.2697,0.2696,0,0.2453,0.2477,0.2488,0.2516,0.2531,0.2551,0.2573,0.2605,0.2623,0.2648,0.272,0.273,0.2782,0.2785,0.2779,0.2879,0.2865,0.2825,0.28,0.2874,0.2921,0.294,0.2701,0.27,0.2699,0.2699,0,0,0.2445,0.249,0.2498,0.2515,0.2552,0.2563,0.2618,0.2673,0.2728,0.2759,0.284,0.2885,0.2911,0.293,0.293,0.2983,0.3088,0.2954,0.2955,0.3002,0.3208,0.3068,0.3074,0.3056,0.306,0.3063,0.3201,0,0.2456,0.2493,0.2517,0.2557,0.2574,0.2615,0.2668,0.2726,0.2776,0.286,0.2915,0.2983,0.2956,0.2992,0.3045,0.3076,0.3142,0.3056,0.3134,0.3138,0.3,0.3093,0.2847,0.2938,0.3219,0.3222,0.3225,0,0.246,0.2485,0.2524,0.2586,0.2601,0.2632,0.273,0.2781,0.2906,0.2956,0.3048,0.3087,0.3195,0.3148,0.3267,0.3209,0.3237,0.3255,0.3259,0.3134,0.3033,0.2911,0.2961,0.3256,0.3254,0.3251,0.3249,0,0.2436,0.2493,0.2526,0.2542,0.2614,0.2654,0.2706,0.2817,0.2887,0.3033,0.3108,0.3215,0.3279,0.3338,0.3361,0.3333,0.3474,0.3427,0.3339,0.3329,0.3142,0.3108,0.3541,0.3541,0.354,0.354,0.3539,0,0.243,0.2456,0.2519,0.2531,0.2595,0.2648,0.274,0.282,0.2955,0.3049,0.3157,0.3236,0.3332,0.3401,0.342,0.3427,0.3516,0.3395,0.3367,0.3149,0.3115,0.3403,0.3385,0.3545,0.3544,0.3543,0.3542,0,0.2396,0.2437,0.2476,0.2551,0.2581,0.2627,0.2747,0.2816,0.2953,0.3082,0.3139,0.3289,0.3372,0.3437,0.3533,0.3483,0.3512,0.3492,0.3227,0.3164,0.3335,0.3318,0.3449,0.3446,0.3443,0.344,0.3438,0,0.2379,0.2395,0.2478,0.2501,0.2534,0.2611,0.2669,0.2806,0.2874,0.3084,0.3134,0.3282,0.3328,0.3413,0.3383,0.3405,0.3471,0.3166,0.307,0.3372,0.3332,0.332,0.3308,0.2855,0.2848,0.2843,0.2838,0,0.234,0.2377,0.2409,0.2473,0.2521,0.2572,0.2653,0.2701,0.286,0.2955,0.3055,0.3118,0.3222,0.3111,0.3132,0.3103,0.3137,0.3052,0.3464,0.2888,0.2815,0.2774,0.2781,0.279,0.2794,0.2798,0.2801,0.2803,0.2315,0.2329,0.2384,0.243,0.2484,0.2499,0.2491,0.2568,0.2636,0.2723,0.2859,0.2862,0.2916,0.2812,0.2724,0.2665,0.289,0.2761,0.2777,0.28,0.2678,0.26,0.2515,0.2518,0.2521,0.2523,0.2525,0,0.2264,0.2292,0.2333,0.2358,0.2359,0.2435,0.2457,0.2402,0.2393,0.2502,0.2549,0.2363,0.2301,0.2354,0.2201,0.2191,0.2171,0.209,0.2056,0.2107,0.2152,0.1995,0.1652,0.1649,0.1646,0.1643,0,0,0.2244,0.2245,0.2258,0.2226,0.2246,0.2197,0.2176,0.2107,0.2119,0.2064,0.2055,0.2221,0.2301,0.1955,0.1913,0.1756,0.1911,0.168,0.2391,0.2405,0.2446,0.256,0.2379,0,0,0,0,0]},{"header":{"parameterUnit":"m.s-1","parameterCategory":2,"la1":30.2991,"la2":30.254,"lo1":-89.0895,"lo2":-89.0444,"dy":0.0017,"dx":0.0017,"nx":28,"ny":28,"refTime":"2025-08-21T03:00:00:Z","depth":"2","parameterNumber":3,"parameterNumberName":"V-component_of_CURRENTS"},"data":[0,0,0,0,0,0,0,0,0,0,0,0,0,0,0,0,0,0,0,0,0,0,0,0,0,0,0,0,0,0,0,0,0,0,0,0,0,0,0,0,0,0,0,0,0,0,0,0,0,0,0,0,0,0,0,0,0,0,0.0151,0.0151,0,0.0109,0.0108,0.0108,0.0078,0.0078,0.0078,0.0078,0.0027,0.0026,0.0025,0,0,0,0,0,0,0,0,0,0,0,0,0,0.0153,0.0153,0.0151,0.0151,0.0151,0.0109,0.0108,0.0108,0.0078,0.0078,0.0078,0.0078,0.0028,0.0026,0.0025,0,0,0,0,0,0,0,0,0,0,0,0,0,0.0134,0.0153,0.0151,0.0132,0.013,0.0109,0.0108,0.0108,0.0078,0.0078,0.0078,0.0078,0.0028,0.0026,0.0025,0.0016,0,0,0.0019,0.0018,0,0,0,0,0,0,0,0,0.0135,0.0134,0.0135,0.0133,0.0131,0.01,0.009,0.0077,0.0078,0.0096,0.0078,0.0078,0.0052,0.0048,0.0039,0.0013,0.0011,0.0019,0.0017,0.0017,0.0016,0,0,0,0,0,0,0,0.0137,0.0135,0.0133,0.0135,0.0132,0.0107,0.0105,0.0087,0.0074,0.0095,0.0093,0.0091,0.0051,0.004,0.0037,0.001,0.0019,0.0017,0.0016,0.0015,-0.0018,-0.0017,0,0,0,0,0,0,0.0148,0.0137,0.0134,0.0132,0.0135,0.0107,0.0105,0.0109,0.0074,0.007,0.0091,0.0089,0.0044,0.0039,0.0035,0.0041,0.0017,0.0015,0.0014,-0.0018,-0.0018,-0.0017,0,0,0,0,0,0,0.0148,0.0149,0.0136,0.0134,0.0131,0.0108,0.0113,0.0108,0.0101,0.0072,0.0066,0.0089,0.0043,0.0038,0.0026,0.0038,0.0014,0.0012,-0.0018,-0.0018,-0.0018,0.0042,0,0,0,0,0,0,0.0149,0.0149,0.0154,0.0135,0.0132,0.0132,0.0113,0.0108,0.01,0.0098,0.0069,0.0063,0.0043,0.0029,0.0024,0.0035,0.0011,-0.0019,-0.0018,-0.0018,0.0039,0.0044,0.0048,0,0,0,0,0,0.0149,0.0161,0.0155,0.0154,0.014,0.0133,0.0129,0.011,0.0101,0.0102,0.0082,0.0065,0.0028,0.0028,0.0022,0.0033,-0.0019,-0.0018,-0.0018,0.0037,0.0043,0.0048,0,0,0,0,0,0,0.0162,0.0158,0.0151,0.016,0.015,0.0129,0.0127,0.0115,0.0099,0.0096,0.0068,0.0061,0.0055,0.0034,0.0034,0.0024,0.0002,0.0001,0.0046,0.0051,0.0055,0.007,0.0009,0,0,0,0,0,0.0168,0.0176,0.0165,0.0171,0.0169,0.0149,0.0142,0.0131,0.0116,0.0108,0.0088,0.0067,0.0052,0.0045,0.0026,0.0021,0.0004,0.0023,0.0028,0.0032,0.0039,0.0029,0.0033,-0.0015,-0.0015,-0.0015,0,0,0.0174,0.0173,0.0177,0.0174,0.0164,0.017,0.0144,0.0141,0.015,0.0105,0.0109,0.0081,0.0053,0.0049,0.0044,0.0034,0.0035,0.0032,0.0036,0.0042,0.003,0.0035,0.0039,-0.0015,-0.0015,-0.0015,0,0,0.0194,0.019,0.0205,0.0203,0.0195,0.0185,0.0188,0.0171,0.0168,0.0164,0.0137,0.0119,0.0094,0.008,0.0069,0.0085,0.0057,0.0076,0.0112,0.0102,0.0107,0.011,0.0091,0.0092,0.008,0.008,0.008,0,0.0201,0.0221,0.0206,0.0221,0.0228,0.0197,0.0217,0.0209,0.0191,0.0197,0.0174,0.0143,0.0112,0.0117,0.0114,0.0097,0.0082,0.0097,0.011,0.0113,0.0115,0.0094,0.0095,0.0083,0.0082,0.0082,0.0082,0,0.0235,0.025,0.0258,0.0271,0.0273,0.0284,0.0276,0.0281,0.0268,0.0255,0.0254,0.021,0.0193,0.0178,0.0147,0.0153,0.0133,0.0117,0.0101,0.0124,0.01,0.01,0.0087,0.0086,0.0085,0.0084,0,0,0.0259,0.028,0.0284,0.0307,0.0305,0.0317,0.0335,0.0348,0.0372,0.0337,0.0368,0.0315,0.0282,0.0267,0.0228,0.0211,0.0202,0.0171,0.0169,0.0159,0.0174,0.0138,0.0134,0.019,0.019,0.019,0.0149,0,0.0292,0.0338,0.0337,0.0383,0.0409,0.04,0.0425,0.0429,0.0424,0.0442,0.0398,0.0401,0.0321,0.0319,0.0284,0.023,0.0204,0.0214,0.0146,0.0144,0.0116,0.0134,0.0153,0.0116,0.0148,0.0148,0.0148,0,0.033,0.0359,0.0411,0.046,0.0471,0.0491,0.0537,0.0555,0.0561,0.0562,0.0543,0.0506,0.0471,0.0409,0.0317,0.0327,0.0251,0.0201,0.0198,0.0146,0.0108,0.0097,0.0114,0.0147,0.0147,0.0147,0.0147,0,0.0367,0.0416,0.0464,0.0478,0.0519,0.0549,0.0572,0.0587,0.0632,0.0642,0.0675,0.0608,0.0601,0.0499,0.0362,0.0347,0.0266,0.0236,0.0133,0.0129,0.0122,0.0117,0.0177,0.0177,0.0177,0.0177,0.0177,0,0.0411,0.0451,0.0488,0.0517,0.0592,0.0597,0.0676,0.0691,0.0735,0.0804,0.0737,0.0774,0.0624,0.0552,0.0411,0.0267,0.0297,0.0144,0.012,0.0141,0.0139,0.0147,0.0144,0.0176,0.0176,0.0176,0.0176,0,0.0446,0.0464,0.053,0.0586,0.0612,0.0665,0.076,0.0821,0.0845,0.094,0.0955,0.091,0.0812,0.0647,0.0488,0.0346,0.0207,0.0147,0.0172,0.0152,0.0065,0.0065,0.004,0.0038,0.0037,0.0036,0.0035,0,0.0469,0.0503,0.0586,0.0639,0.0669,0.0753,0.0822,0.0874,0.0952,0.1026,0.1084,0.102,0.0981,0.0721,0.0474,0.0235,0.0201,0.009,0.0058,0.0073,0.0053,0.0055,0.0058,0.0071,0.007,0.007,0.007,0,0.0518,0.0541,0.06,0.0708,0.0789,0.0896,0.0996,0.1077,0.1153,0.1221,0.1281,0.1252,0.1018,0.0775,0.0444,0.0276,0.0126,0.0073,0.01,0.0098,0.0098,0.0079,0.0081,0.0066,0.0066,0.0066,0.0067,0.0067,0.0557,0.0606,0.0683,0.079,0.0889,0.102,0.1117,0.1224,0.1342,0.1439,0.1408,0.136,0.11,0.0669,0.0388,0.0094,0.0109,-0.0002,0.0001,0.0005,0.0011,0.0009,-0.004,-0.004,-0.004,-0.004,-0.004,0,0.0609,0.0667,0.0765,0.0892,0.1007,0.1055,0.1225,0.131,0.1441,0.1505,0.153,0.1269,0.1003,0.0701,0.0273,0.0013,-0.0005,-0.008,-0.0034,-0.0028,-0.0024,-0.0017,-0.0077,-0.0078,-0.0078,-0.0079,0,0,0.0638,0.0732,0.0781,0.0967,0.1062,0.122,0.132,0.1424,0.1497,0.1535,0.1507,0.1444,0.1087,0.077,0.0423,0.0178,0.0129,0.0118,0.0175,0.0276,0.0283,0.0048,0.0067,0,0,0,0,0]}],[{"header":{"parameterUnit":"m.s-1","parameterCategory":2,"la1":30.2991,"la2":30.254,"lo1":-89.0895,"lo2":-89.0444,"dy":0.0017,"dx":0.0017,"nx":28,"ny":28,"refTime":"2025-08-21T03:00:00:Z","depth":"4","parameterNumber":2,"parameterNumberName":"U-component_of_CURRENTS"},"data":[0,0,0,0,0,0,0,0,0,0,0,0,0,0,0,0,0,0,0,0,0,0,0,0,0,0,0,0,0,0,0,0,0,0,0,0,0,0,0,0,0,0,0,0,0,0,0,0,0,0,0,0,0,0,0,0,0,0,0.1546,0.1547,0,0.1599,0.1599,0.16,0.1643,0.1644,0.1645,0.1645,0.1673,0.1673,0.1673,0,0,0,0,0,0,0,0,0,0,0,0,0,0.1457,0.1458,0.1546,0.1547,0.1548,0.1599,0.1599,0.16,0.1643,0.1644,0.1645,0.1646,0.1673,0.1673,0.1673,0,0,0,0,0,0,0,0,0,0,0,0,0,0.1499,0.1459,0.1546,0.1577,0.1581,0.1599,0.1599,0.16,0.1643,0.1644,0.1645,0.1646,0.1673,0.1673,0.1673,0.1655,0,0,0.1674,0.1674,0,0,0,0,0,0,0,0,0.1497,0.1502,0.1572,0.1575,0.1579,0.1617,0.1578,0.1618,0.1643,0.1617,0.1645,0.1646,0.1653,0.1655,0.166,0.1656,0.1657,0.1674,0.1674,0.1674,0.1674,0,0,0,0,0,0,0,0.1494,0.15,0.1565,0.1573,0.1577,0.158,0.1587,0.1586,0.1627,0.1619,0.1623,0.1632,0.1654,0.1659,0.1661,0.1658,0.1674,0.1674,0.1674,0.1674,0.1717,0.1718,0,0,0,0,0,0,0.1492,0.1498,0.1563,0.1567,0.1542,0.1581,0.1589,0.1602,0.1627,0.1633,0.1631,0.1634,0.1659,0.166,0.1662,0.1714,0.1674,0.1674,0.1674,0.1716,0.1717,0.1718,0,0,0,0,0,0,0.149,0.1498,0.1561,0.1535,0.1543,0.1582,0.1596,0.1603,0.1642,0.1637,0.1642,0.1668,0.1659,0.1661,0.1684,0.1713,0.1674,0.1674,0.1714,0.1716,0.1717,0.1772,0,0,0,0,0,0,0.1487,0.1497,0.152,0.1535,0.1545,0.159,0.1596,0.1603,0.1645,0.165,0.1669,0.1671,0.166,0.1684,0.1684,0.1712,0.1675,0.1713,0.1715,0.1717,0.1769,0.1775,0.1781,0,0,0,0,0,0.1484,0.1505,0.1521,0.153,0.1572,0.1591,0.1597,0.1625,0.1646,0.1664,0.1678,0.1672,0.1697,0.1685,0.1685,0.1714,0.1712,0.1715,0.1717,0.1766,0.1774,0.1781,0,0,0,0,0,0,0.1476,0.1512,0.153,0.1562,0.1586,0.16,0.1627,0.1644,0.167,0.1686,0.1681,0.1683,0.1715,0.1705,0.1692,0.1732,0.1705,0.1708,0.1743,0.175,0.1756,0.176,0.1675,0,0,0,0,0,0.1485,0.1517,0.1542,0.1571,0.1589,0.1615,0.1635,0.1653,0.1671,0.1687,0.1697,0.1709,0.1718,0.1728,0.1732,0.175,0.1756,0.177,0.1776,0.1781,0.1785,0.1825,0.1835,0.1725,0.1725,0.1725,0,0,0.1488,0.1515,0.1533,0.1573,0.1598,0.1616,0.163,0.1669,0.1688,0.1683,0.1721,0.1732,0.1728,0.1751,0.1765,0.1751,0.1815,0.1784,0.1788,0.1789,0.1829,0.1839,0.1849,0.1727,0.1727,0.1726,0,0,0.1495,0.1539,0.1563,0.1585,0.163,0.1642,0.1661,0.1693,0.1721,0.175,0.1755,0.1783,0.1797,0.1799,0.1801,0.1841,0.1846,0.1851,0.1884,0.1924,0.1933,0.1942,0.1965,0.1975,0.1853,0.1853,0.1853,0,0.1501,0.1531,0.1571,0.1595,0.1617,0.1657,0.1676,0.1703,0.1737,0.1759,0.1772,0.1814,0.1816,0.1841,0.186,0.1855,0.1878,0.1858,0.1932,0.1941,0.1949,0.197,0.1981,0.1856,0.1855,0.1855,0.1855,0,0.1512,0.1546,0.1565,0.1607,0.1635,0.1662,0.1699,0.1735,0.1775,0.1796,0.185,0.1863,0.1889,0.1898,0.1893,0.1949,0.1948,0.1937,0.1916,0.1963,0.1983,0.1993,0.186,0.1859,0.1858,0.1857,0,0,0.1492,0.1559,0.1567,0.159,0.1647,0.1665,0.171,0.1752,0.1794,0.1837,0.1889,0.1916,0.1945,0.195,0.1959,0.1994,0.207,0.1999,0.2,0.2025,0.2162,0.2032,0.203,0.2086,0.2088,0.209,0.2155,0,0.149,0.1528,0.1565,0.1601,0.1623,0.1676,0.1713,0.1761,0.1817,0.1876,0.1914,0.197,0.1959,0.2,0.2031,0.2075,0.2099,0.2053,0.211,0.2112,0.1992,0.2038,0.2096,0.2162,0.2164,0.2166,0.2167,0,0.1481,0.1511,0.1546,0.1606,0.1624,0.1656,0.1735,0.1777,0.1863,0.1914,0.1977,0.2019,0.2089,0.2076,0.2161,0.2142,0.2154,0.2172,0.2175,0.2039,0.1999,0.2104,0.2185,0.2183,0.2182,0.2181,0.218,0,0.1436,0.1494,0.1525,0.1544,0.1616,0.1656,0.1707,0.1793,0.185,0.1962,0.2025,0.2095,0.2167,0.2201,0.2247,0.2225,0.2334,0.2299,0.2179,0.2171,0.2245,0.2235,0.2337,0.2337,0.2337,0.2337,0.2336,0,0.1403,0.1431,0.1514,0.1529,0.1577,0.1647,0.1722,0.1785,0.1897,0.1961,0.2056,0.2117,0.2211,0.2278,0.2285,0.2272,0.2365,0.2191,0.2181,0.2265,0.2257,0.2252,0.2241,0.2339,0.2338,0.2338,0.2338,0,0.1346,0.1399,0.144,0.1526,0.156,0.1603,0.1729,0.1778,0.1905,0.2,0.2048,0.2177,0.2262,0.2323,0.2395,0.2317,0.232,0.2281,0.2381,0.2375,0.2115,0.2107,0.2145,0.2141,0.2138,0.2135,0.2133,0,0.1314,0.1334,0.143,0.1457,0.1504,0.1585,0.1635,0.1768,0.183,0.2009,0.2042,0.2179,0.224,0.2246,0.2311,0.2314,0.2273,0.2252,0.2156,0.211,0.2098,0.2095,0.2091,0.2127,0.2126,0.2126,0.2125,0,0.1255,0.1308,0.134,0.14,0.1458,0.1508,0.1602,0.1637,0.1786,0.1923,0.1992,0.2032,0.2117,0.216,0.2189,0.2177,0.2259,0.2215,0.222,0.213,0.2089,0.2079,0.208,0.2113,0.2115,0.2116,0.2116,0,0.1217,0.1225,0.1281,0.1321,0.1387,0.1406,0.1465,0.1538,0.1617,0.1817,0.1835,0.1972,0.2102,0.209,0.2114,0.2105,0.2049,0.1956,0.1974,0.1987,0.1902,0.1825,0.1765,0,0,0,0,0,0.1168,0.1165,0.1195,0.1221,0.1283,0.1324,0.1427,0.1492,0.1644,0.165,0.174,0.1807,0.185,0.1923,0.1877,0.2019,0.2046,0.1954,0.1945,0.2048,0.2061,0.1974,0,0,0,0,0,0,0.113,0.1157,0.116,0.1135,0.114,0.119,0.1251,0.1347,0.1366,0.153,0.1573,0.1693,0.1772,0.1865,0.1845,0.1862,0.1816,0.2043,0.2038,0.204,0.2052,0.2063,0.1978,0,0,0,0,0]},{"header":{"parameterUnit":"m.s-1","parameterCategory":2,"la1":30.2991,"la2":30.254,"lo1":-89.0895,"lo2":-89.0444,"dy":0.0017,"dx":0.0017,"nx":28,"ny":28,"refTime":"2025-08-21T03:00:00:Z","depth":"4","parameterNumber":3,"parameterNumberName":"V-component_of_CURRENTS"},"data":[0,0,0,0,0,0,0,0,0,0,0,0,0,0,0,0,0,0,0,0,0,0,0,0,0,0,0,0,0,0,0,0,0,0,0,0,0,0,0,0,0,0,0,0,0,0,0,0,0,0,0,0,0,0,0,0,0,0,0.013,0.013,0,0.0102,0.0101,0.0101,0.0083,0.0083,0.0083,0.0083,0.0054,0.0054,0.0053,0,0,0,0,0,0,0,0,0,0,0,0,0,0.0133,0.0133,0.013,0.013,0.013,0.0102,0.0101,0.0101,0.0083,0.0083,0.0083,0.0083,0.0055,0.0054,0.0053,0,0,0,0,0,0,0,0,0,0,0,0,0,0.012,0.0133,0.0131,0.0118,0.0117,0.0102,0.0101,0.0101,0.0083,0.0083,0.0083,0.0083,0.0055,0.0054,0.0053,0.0047,0,0,0.0049,0.0049,0,0,0,0,0,0,0,0,0.0121,0.012,0.012,0.0119,0.0118,0.0097,0.0091,0.0083,0.0083,0.0095,0.0083,0.0083,0.0069,0.0067,0.006,0.0045,0.0044,0.0049,0.0049,0.0048,0.0048,0,0,0,0,0,0,0,0.0122,0.0121,0.0118,0.012,0.0118,0.0101,0.01,0.009,0.0082,0.0094,0.0093,0.0091,0.0068,0.0062,0.006,0.0044,0.0049,0.0048,0.0048,0.0047,0.0044,0.0044,0,0,0,0,0,0,0.0129,0.0122,0.0119,0.0118,0.012,0.0102,0.01,0.0103,0.0082,0.0079,0.0091,0.009,0.0063,0.0061,0.0059,0.0075,0.0048,0.0047,0.0046,0.0043,0.0044,0.0044,0,0,0,0,0,0,0.0129,0.0129,0.012,0.0119,0.0117,0.0102,0.0105,0.0102,0.01,0.008,0.0077,0.0092,0.0063,0.006,0.0058,0.0073,0.0047,0.0046,0.0042,0.0043,0.0044,0.0091,0,0,0,0,0,0,0.0129,0.0129,0.0134,0.012,0.0117,0.0119,0.0105,0.0102,0.0099,0.0097,0.008,0.0077,0.0063,0.006,0.0057,0.0071,0.0045,0.0042,0.0043,0.0044,0.0089,0.0094,0.0098,0,0,0,0,0,0.013,0.0138,0.0134,0.0134,0.0124,0.012,0.0117,0.0105,0.0099,0.0102,0.0091,0.0078,0.0065,0.006,0.0056,0.007,0.0041,0.0042,0.0044,0.0087,0.0093,0.0098,0,0,0,0,0,0,0.014,0.0137,0.0132,0.0139,0.0133,0.0117,0.0118,0.0109,0.0102,0.0101,0.0083,0.0079,0.0084,0.0069,0.0064,0.0072,0.0051,0.0052,0.0086,0.0091,0.0095,0.0105,0.0044,0,0,0,0,0,0.0145,0.0152,0.0143,0.0149,0.0148,0.0133,0.0129,0.0122,0.0113,0.011,0.0099,0.0088,0.0085,0.0083,0.0074,0.0077,0.0049,0.0084,0.0088,0.0092,0.0098,0.0066,0.0068,0.0049,0.0049,0.0049,0,0,0.0151,0.0149,0.0153,0.0151,0.0145,0.0152,0.0131,0.013,0.0141,0.0108,0.0119,0.0102,0.0089,0.0094,0.0095,0.0085,0.0082,0.0094,0.0097,0.0101,0.0068,0.0069,0.0071,0.005,0.0049,0.0049,0,0,0.0167,0.0165,0.0176,0.0177,0.0172,0.0165,0.0168,0.0157,0.0158,0.0163,0.0145,0.0139,0.0131,0.0125,0.0122,0.0144,0.0106,0.0141,0.0171,0.0141,0.0142,0.0143,0.0105,0.0102,0.0143,0.0144,0.0144,0,0.0174,0.0189,0.0178,0.019,0.0199,0.0176,0.0195,0.0192,0.0183,0.0188,0.0175,0.0162,0.0149,0.0158,0.0166,0.0155,0.0125,0.0153,0.0146,0.0146,0.0146,0.0108,0.0104,0.0146,0.0146,0.0146,0.0145,0,0.02,0.0214,0.0221,0.0234,0.024,0.0251,0.025,0.0256,0.0251,0.0242,0.0246,0.0222,0.0215,0.0209,0.0196,0.0194,0.0168,0.0154,0.0133,0.0151,0.0109,0.0104,0.015,0.0149,0.0148,0.0147,0,0,0.0216,0.0237,0.0241,0.0263,0.0268,0.0279,0.0301,0.0314,0.033,0.0312,0.0328,0.0313,0.0286,0.0281,0.0256,0.023,0.0201,0.0195,0.0192,0.0158,0.0123,0.011,0.0103,0.018,0.018,0.0179,0.0092,0,0.0242,0.028,0.0285,0.0328,0.035,0.035,0.0374,0.0381,0.0377,0.0383,0.0355,0.0354,0.0318,0.0314,0.0282,0.0225,0.0191,0.0226,0.0111,0.0108,0.0094,0.0098,0.0178,0.0088,0.0087,0.0086,0.0086,0,0.0269,0.0294,0.034,0.0386,0.0397,0.0422,0.046,0.0478,0.0474,0.0471,0.0454,0.0419,0.039,0.0353,0.0258,0.0279,0.0208,0.0154,0.0149,0.0119,0.0086,0.0067,0.0076,0.0077,0.0078,0.0078,0.0079,0,0.0291,0.0338,0.0381,0.0396,0.0436,0.0469,0.0494,0.0504,0.0533,0.0524,0.0531,0.0476,0.0458,0.0365,0.0254,0.0253,0.0135,0.012,0.0038,0.0035,0.0051,0.0051,0.0046,0.0047,0.0047,0.0047,0.0047,0,0.0319,0.0356,0.0399,0.0425,0.0489,0.0505,0.0566,0.0579,0.0601,0.063,0.0578,0.0576,0.0458,0.0375,0.0267,0.0138,0.0142,0.0044,0.0015,0.0073,0.0076,0.0047,0.0048,0.0044,0.0044,0.0045,0.0046,0,0.0336,0.0359,0.0417,0.0475,0.0501,0.0549,0.0629,0.0667,0.0677,0.0714,0.0715,0.0653,0.0544,0.0411,0.0255,0.0163,0.0036,-0.0015,0.0053,0.003,-0.005,-0.0045,-0.011,-0.0111,-0.0112,-0.0113,-0.0113,0,0.0348,0.0376,0.0456,0.05,0.0533,0.0608,0.0661,0.0705,0.0747,0.0756,0.0774,0.0686,0.0622,0.0398,0.0249,0.0038,0.0006,-0.0067,-0.0054,-0.0043,-0.0065,-0.0058,-0.0052,-0.0115,-0.0115,-0.0115,-0.0116,0,0.0371,0.0398,0.0447,0.0534,0.0604,0.0685,0.0764,0.0801,0.0842,0.0851,0.082,0.0703,0.0579,0.04,0.0234,0.0082,-0.0021,-0.0077,-0.0076,-0.0065,-0.005,-0.0069,-0.0062,-0.0119,-0.0118,-0.0118,-0.0118,0,0.039,0.0425,0.0488,0.0569,0.0654,0.0736,0.078,0.0831,0.0871,0.0878,0.0859,0.0724,0.0646,0.0421,0.0268,0.0118,0.008,0.0026,0.0021,0.0023,0.0086,0.0126,0.0089,0,0,0,0,0,0.0406,0.0447,0.052,0.0606,0.0691,0.0745,0.0836,0.0872,0.0908,0.0893,0.0881,0.0763,0.0538,0.0443,0.0292,0.024,0.0047,0.0056,-0.0019,-0.0137,-0.0133,-0.0082,0,0,0,0,0,0,0.0416,0.048,0.0516,0.0621,0.0685,0.0783,0.0843,0.0871,0.0869,0.0875,0.0763,0.0711,0.0498,0.0622,0.0283,0.0238,0.0166,-0.0043,-0.0047,-0.0139,-0.0136,-0.0133,-0.0079,0,0,0,0,0]}]]